RISAT 1

Last updated on Sat Apr 13 2024 01:02:30 GMT+0100 (British Summer Time)

1 38248U 12017A 24103.58535538 .00010456 00000+0 45887-3 0 9998 2 38248 97.5287 120.8256 0005034 109.3030 250.8751 15.22130393659598
UTC large
Height (km)
Speed (km/s)
/
Latitude / Longitude
Inclination (degrees)
Orbital Period (minutes)
Azimuth
Elevation
Range (km)
Doppler Factor

Next 0 passes for location: London (51.5072 / 0.1276)

Sorry there are no passes over London.